Weston, WY

3:45 PM MDT on October 01, 2016 (GMT -0600)
Gillette-Campbell County

Weather History for KGCC - February, 2013

Change the Weather History Date:

Tuesday, February 26, 2013

  Actual Average Record
Temperature  
Mean Temperature 25 °F 30 °F  
Max Temperature 33 °F 41 °F 62 °F (2016)
Min Temperature 17 °F 19 °F -9 °F (2015)
Degree Days  
Heating Degree Days 40 35  
Month to date heating degree days 961 984  
Since 1 July heating degree days 5047 5339  
Cooling Degree Days 0 0  
Month to date cooling degree days 0 0  
Year to date cooling degree days 0 0  
Moisture  
Dew Point 23 °F    
Average Humidity 78    
Maximum Humidity 92    
Minimum Humidity 63    
Precipitation  
Precipitation 0.14 in 0.01 in 0.00 in (2016)
Month to date precipitation 0.72 0.36  
Year to date precipitation 1.13 0.75  
Sea Level Pressure  
Sea Level Pressure 29.98 in    
Wind  
Wind Speed 14 mph (NW)    
Max Wind Speed 22 mph    
Max Gust Speed 30 mph    
Visibility 7 miles    
Events Snow    
T = Trace of Precipitation, MM = Missing Value Source: NWS Daily Summary

Daily Weather History Graph

Daily Weather History Graph

Search for Another Location

Airport or City:

Trip Planner

Search our weather history database for the weather conditions in past years. The results will help you decide how hot, cold, wet, or windy it might be!

Date:

Astronomy

Feb. 26, 2013 Rise Set
Actual Time 6:43 AM MST 5:46 PM MST
Civil Twilight 6:14 AM MST 6:15 PM MST
Nautical Twilight 5:41 AM MST 6:49 PM MST
Astronomical Twilight 5:07 AM MST 7:23 PM MST
Moon 7:11 PM MST (2/26) 6:44 AM MST (2/26)
Length of Visible Light 12h 01m
Length of Day
11h 02m
Full, 99% of the Moon is Illuminated
Feb 26
Full
Mar 4
Last Quarter
Mar 11
New
Mar 19
First Quarter
Mar 27
Full

Hourly Weather History & Observations

Time (MST) Temp. Windchill Dew Point Humidity Pressure Visibility Wind Dir Wind Speed Gust Speed Precip Events Conditions
12:53 AM - - - N/A% 29.79 in - North - - N/A   Unknown
1:53 AM - - - N/A% 29.80 in - North - - N/A   Unknown
2:53 AM - - - N/A% 29.80 in - North - - N/A   Unknown
3:53 AM - - - N/A% 29.82 in - North - - N/A   Unknown
4:53 AM - - - N/A% 29.83 in - North - - N/A   Unknown
5:53 AM - - - N/A% 29.86 in - North - - N/A   Unknown
6:53 AM - - - N/A% 29.87 in - North - - N/A   Unknown
7:53 AM 28.9 °F 18.2 °F 27.0 °F 92% 30.00 in - NW 13.8 mph - 0.00 in Snow Light Snow
8:07 AM 28.4 °F 17.0 °F 26.6 °F 93% 29.90 in 0.8 mi NW 15.0 mph - 0.01 in Snow Light Snow
8:27 AM 28.4 °F 15.4 °F 26.6 °F 93% 29.91 in 1.0 mi NW 19.6 mph 25.3 mph 0.01 in Snow Light Snow
8:53 AM 28.9 °F 16.9 °F 27.0 °F 92% 30.02 in 1.0 mi NW 17.3 mph - 0.02 in Snow Light Snow
9:06 AM 28.4 °F 15.8 °F 26.6 °F 93% 29.92 in 0.8 mi NW 18.4 mph - 0.00 in Snow Light Snow
9:22 AM 28.4 °F 15.4 °F 26.6 °F 93% 29.92 in 1.0 mi NW 19.6 mph - 0.00 in Snow Light Snow
9:53 AM 28.9 °F 16.5 °F 26.1 °F 89% 30.03 in 1.0 mi NW 18.4 mph - 0.01 in Snow Light Snow
10:02 AM 28.4 °F 16.2 °F 26.6 °F 93% 29.93 in 0.8 mi NW 17.3 mph - 0.00 in Snow Light Snow
10:05 AM 28.4 °F 15.4 °F 26.6 °F 93% 29.93 in 1.0 mi NW 19.6 mph - 0.00 in Snow Light Snow
10:20 AM 28.4 °F 15.4 °F 24.8 °F 86% 29.94 in 3.0 mi NNW 19.6 mph 26.5 mph 0.00 in   Overcast
10:32 AM 30.2 °F 18.1 °F 24.8 °F 80% 29.93 in 10.0 mi NNW 18.4 mph - 0.00 in   Overcast
10:53 AM 30.9 °F 18.1 °F 21.9 °F 69% 30.05 in 10.0 mi NNW 21.9 mph - 0.00 in   Overcast
11:53 AM 30.9 °F 18.4 °F 23.0 °F 72% 30.07 in 10.0 mi NNW 20.7 mph 27.6 mph 0.00 in   Overcast
12:53 PM 32.0 °F 19.8 °F 23.0 °F 69% 29.95 in 10.0 mi NNW 20.7 mph - N/A   Overcast
1:53 PM 32.0 °F 20.1 °F 21.9 °F 66% 29.97 in 10.0 mi NNW 19.6 mph - N/A   Overcast
2:53 PM 32.0 °F 20.1 °F 21.9 °F 66% 29.99 in 10.0 mi NNW 19.6 mph - N/A   Overcast
3:53 PM 32.0 °F 21.6 °F 21.9 °F 66% 30.01 in 10.0 mi NNW 15.0 mph - N/A   Overcast
4:53 PM 30.0 °F 21.1 °F 21.9 °F 72% 30.03 in 10.0 mi NW 10.4 mph - N/A   Scattered Clouds
5:53 PM 27.0 °F 18.7 °F 19.9 °F 75% 30.05 in 10.0 mi NW 8.1 mph - N/A   Partly Cloudy
6:53 PM 27.0 °F 17.3 °F 19.9 °F 75% 30.07 in 10.0 mi NW 10.4 mph - N/A   Partly Cloudy
7:53 PM 26.1 °F 17.6 °F 19.9 °F 78% 30.19 in 10.0 mi NW 8.1 mph - N/A   Mostly Cloudy
8:53 PM 28.0 °F 18.1 °F 21.0 °F 75% 30.20 in 10.0 mi NNW 11.5 mph - N/A   Mostly Cloudy
9:53 PM 23.0 °F 13.1 °F 18.0 °F 81% 30.24 in 10.0 mi NNW 9.2 mph - N/A   Scattered Clouds
10:53 PM 19.9 °F 8.6 °F 16.0 °F 85% 30.24 in 10.0 mi WNW 10.4 mph - N/A   Partly Cloudy
11:53 PM 18.0 °F 5.4 °F 15.1 °F 88% 30.25 in 10.0 mi West 11.5 mph - N/A   Clear